Showing default

BSAT-4A, 42951

Orbit data source: Space-Track

BSAT-4A, 42951 is a payload satellite owned by BSAT (JP) in GEO that was launched on Fri, 29 Sep 2017 UTC via an ARIANE 5ECA launch vehicle from the French Guiana (FRGUI). Payloads include a variety of satellites, spacecraft, and rockets equipped with specific instruments for various scientific and technological missions. These include communications satellites like Starlink; space stations such as the ISS; scientific satellites like the Hubble; Earth observation satellites from companies like Planet Labs, Umbra, and HawkEye 360; GPS; miniature CubeSats for education and research; and military/defense satellites.

Not visible in the next 10 days
BSAT-4A details
Identifier
42951, 2017-059B
Orbit
GEO
Last TLE update20 hours ago
Origin
Flag of JPBSAT (JP / JPN)
ManufacturerSS/Loral (MDA)
MissionOperational Commercial Communications
Bus & MotorLS-1300, R-4D
Mass3,520 kg wet, ~1,800 kg dry
Launch date (UTC)
2017-09-29 (7 years ago)
Launch vehicle
ARIANE 5ECA
Launch site
French Guiana (FRGUI)
Object type
Payload
Rocket body
Debris
Shape & HBRBox + 2 Pan, 24.7 m
Radar Cross Section33.343 m², Large (>1 m²)

Expand to show TLE details & history

TLE from 20 hours ago
0 BSAT-4A
1 42951U 17059B   24360.62232976 -.00000323  00000-0  00000+0 0  9993
2 42951   0.0665  63.7241 0002061 293.5235  71.2523  1.00272157 26554
Epoch: 2024-12-25T14:56Z
Definitive object data (Epoch: 2024-12-25T14:56:09.291Z)
Latitude0.0236°
Longitude109.86322°
Altitude35,783.198 km
Speed3.075 km/s
True Right ascension04h 34m 03s
True Declination0° 01' 25"
Sunlit
Object was in daylight at TLE epoch
Visualization TLE readout
Latitude-0.05298°
Longitude47.77186°
Altitude35,777.569 km
Speed3.075 km/s
Apparent Right ascension00h 11m 46s
Apparent Declination-5° 04' 39"
Sunlit
Object is in daylight
Visualization observer readout
Local Sidereal Time10:05:50
Azimuth312.53° NW
Elevation-45.097°
Doppler factor1
Orbital elements
Apogee altitude35,796.251 km
Perigee altitude35,778.871 km
Semi-major axis42,165.698 km
Eccentricity0.0002061
Inclination0.0665°
RAAN63.7241°
Arg. of periapsis293.5235°
True anomaly71.27467°
Mean anomaly71.2523°
Eccentric anomaly71.26348°
Mean motion0.25067 °/min
BSTARUnknown
Orbital period1436.14 mins
Loading historical data...
42951 neighbors
Authenticating...
Loading maneuver chart data...
Loading historical data...
Loading historical data...
Loading historical data...
Loading historical data...
Loading historical data...
Loading historical data...
Loading historical data...
Other satellites on launch #59 in the year 2017 (2017-09-29 UTC)

BSAT-4A Visibility forecast

Observer location: undefined°, undefined

BSAT-4A is not visible in the next 10 days
Span
Click to sort rows by Start time (UTC) header in descending order
Start Az.
Max El. time (UTC)
Max El. Az.
Max El.
End time (UTC)
End Az.
|